Zurück zum Katalog

HJS-4C

AktivWissenschaftLEO
NORAD 58693·PAYLOAD·🇨🇳 China

Gestartet Dec 30, 2023 von Jiuquan Satellite Launch Center

Loading…

Nächste Überflüge (nächste 24 Stunden)

TLE

AktuellSource: Space-Track

Epoche: Sep 14, 2026, 14:55 UTC

1 58693U 23212C   26257.62182049 -.00000114  00000-0  25490-4 0  9996
2 58693  50.0006  16.5566 0000607  29.0575 331.0336 13.41465051133268

Verfolge HJS-4C in Echtzeit mit AllMySat

Download on the App Store